Time,TemperatureF,DewpointF,PressureIn,WindDirection,WindDirectionDegrees,WindSpeedMPH,WindSpeedGustMPH,Humidity,HourlyPrecipIn,Conditions,Clouds,dailyrainin,SoftwareType,DateUTC
2013-01-09 00:02:00,46.0,43.0,30.16,North,-999,-999.0,-999.0,88,-99.99,,,-99.99,,2013-01-09 06:02:00,
2013-01-09 00:12:00,46.0,43.0,30.17,North,-999,-999.0,-999.0,88,-99.99,,,-99.99,,2013-01-09 06:12:00,
2013-01-09 00:22:00,46.0,43.0,30.17,North,-999,-999.0,-999.0,88,-99.99,,,-99.99,,2013-01-09 06:22:00,
2013-01-09 00:32:00,46.0,43.0,30.18,North,-999,-999.0,-999.0,88,-99.99,,,-99.99,,2013-01-09 06:32:00,
2013-01-09 00:42:00,46.0,43.0,30.18,North,-999,-999.0,-999.0,88,-99.99,,,-99.99,,2013-01-09 06:42:00,
2013-01-09 00:52:00,46.0,43.0,30.19,North,-999,-999.0,-999.0,88,-99.99,,,-99.99,,2013-01-09 06:52:00,
2013-01-09 01:02:00,46.0,43.0,30.19,North,-999,-999.0,-999.0,88,-99.99,,,-99.99,,2013-01-09 07:02:00,
2013-01-09 01:12:00,46.0,43.0,30.19,North,-999,-999.0,-999.0,88,-99.99,,,-99.99,,2013-01-09 07:12:00,
2013-01-09 01:22:00,46.0,43.0,30.19,North,-999,-999.0,-999.0,88,-99.99,,,-99.99,,2013-01-09 07:22:00,
2013-01-09 01:32:00,46.0,43.0,30.21,North,-999,-999.0,-999.0,88,-99.99,,,-99.99,,2013-01-09 07:32:00,
2013-01-09 01:42:00,46.0,43.0,30.20,North,-999,-999.0,-999.0,88,-99.99,,,-99.99,,2013-01-09 07:42:00,
2013-01-09 01:52:00,46.0,43.0,30.20,North,-999,-999.0,-999.0,88,-99.99,,,-99.99,,2013-01-09 07:52:00,
2013-01-09 02:02:00,46.0,43.0,30.20,North,-999,-999.0,-999.0,88,-99.99,,,-99.99,,2013-01-09 08:02:00,
2013-01-09 02:12:00,46.0,43.0,30.21,North,-999,-999.0,-999.0,88,-99.99,,,-99.99,,2013-01-09 08:12:00,
2013-01-09 02:22:00,46.0,43.0,30.21,North,-999,-999.0,-999.0,88,-99.99,,,-99.99,,2013-01-09 08:22:00,
2013-01-09 02:32:00,46.0,43.0,30.21,North,-999,-999.0,-999.0,88,-99.99,,,-99.99,,2013-01-09 08:32:00,
2013-01-09 02:42:00,46.0,43.0,30.21,North,-999,-999.0,-999.0,88,-99.99,,,-99.99,,2013-01-09 08:42:00,
2013-01-09 02:52:00,46.0,43.0,30.22,North,-999,-999.0,-999.0,88,-99.99,,,-99.99,,2013-01-09 08:52:00,
2013-01-09 03:02:00,46.0,43.0,30.22,North,-999,-999.0,-999.0,88,-99.99,,,-99.99,,2013-01-09 09:02:00,
2013-01-09 03:12:00,46.0,43.0,30.23,North,-999,-999.0,-999.0,88,-99.99,,,-99.99,,2013-01-09 09:12:00,
2013-01-09 03:22:00,46.0,43.0,30.23,North,-999,-999.0,-999.0,88,-99.99,,,-99.99,,2013-01-09 09:22:00,
2013-01-09 03:32:00,46.0,42.0,30.23,North,-999,-999.0,-999.0,87,-99.99,,,-99.99,,2013-01-09 09:32:00,
2013-01-09 03:42:00,46.0,42.0,30.24,North,-999,-999.0,-999.0,87,-99.99,,,-99.99,,2013-01-09 09:42:00,
2013-01-09 03:53:00,46.0,42.0,30.24,North,-999,-999.0,-999.0,87,-99.99,,,-99.99,,2013-01-09 09:53:00,
2013-01-09 04:02:00,46.0,42.0,30.23,North,-999,-999.0,-999.0,87,-99.99,,,-99.99,,2013-01-09 10:02:00,
2013-01-09 04:12:00,46.0,42.0,30.23,North,-999,-999.0,-999.0,87,-99.99,,,-99.99,,2013-01-09 10:12:00,
2013-01-09 04:22:00,46.0,42.0,30.23,North,-999,-999.0,-999.0,87,-99.99,,,-99.99,,2013-01-09 10:22:00,
2013-01-09 04:32:00,46.0,42.0,30.24,North,-999,-999.0,-999.0,87,-99.99,,,-99.99,,2013-01-09 10:32:00,
2013-01-09 04:42:00,45.0,42.0,30.24,North,-999,-999.0,-999.0,87,-99.99,,,-99.99,,2013-01-09 10:42:00,
2013-01-09 04:52:00,45.0,42.0,30.24,North,-999,-999.0,-999.0,87,-99.99,,,-99.99,,2013-01-09 10:52:00,
2013-01-09 05:02:00,45.0,42.0,30.24,North,-999,-999.0,-999.0,88,-99.99,,,-99.99,,2013-01-09 11:02:00,
2013-01-09 05:12:00,46.0,42.0,30.24,North,-999,-999.0,-999.0,88,-99.99,,,-99.99,,2013-01-09 11:12:00,
2013-01-09 05:22:00,46.0,42.0,30.24,North,-999,-999.0,-999.0,88,-99.99,,,-99.99,,2013-01-09 11:22:00,
2013-01-09 05:32:00,45.0,42.0,30.23,North,-999,-999.0,-999.0,88,-99.99,,,-99.99,,2013-01-09 11:32:00,
2013-01-09 05:42:00,45.0,42.0,30.24,North,-999,-999.0,-999.0,87,-99.99,,,-99.99,,2013-01-09 11:42:00,
2013-01-09 05:52:00,45.0,42.0,30.24,North,-999,-999.0,-999.0,87,-99.99,,,-99.99,,2013-01-09 11:52:00,
2013-01-09 06:03:00,45.0,41.0,30.25,North,-999,-999.0,-999.0,86,-99.99,,,-99.99,,2013-01-09 12:03:00,
2013-01-09 06:12:00,45.0,41.0,30.26,North,-999,-999.0,-999.0,87,-99.99,,,-99.99,,2013-01-09 12:12:00,
2013-01-09 06:23:00,45.0,41.0,30.26,North,-999,-999.0,-999.0,87,-99.99,,,-99.99,,2013-01-09 12:23:00,
2013-01-09 06:33:00,45.0,41.0,30.26,North,-999,-999.0,-999.0,88,-99.99,,,-99.99,,2013-01-09 12:33:00,
2013-01-09 06:43:00,45.0,41.0,30.26,North,-999,-999.0,-999.0,88,-99.99,,,-99.99,,2013-01-09 12:43:00,
2013-01-09 06:52:00,45.0,41.0,30.26,North,-999,-999.0,-999.0,88,-99.99,,,-99.99,,2013-01-09 12:52:00,
2013-01-09 07:03:00,44.0,41.0,30.27,North,-999,-999.0,-999.0,88,-99.99,,,-99.99,,2013-01-09 13:03:00,
2013-01-09 07:12:00,44.0,41.0,30.28,North,-999,-999.0,-999.0,88,-99.99,,,-99.99,,2013-01-09 13:12:00,
2013-01-09 07:23:00,44.0,41.0,30.28,North,-999,-999.0,-999.0,88,-99.99,,,-99.99,,2013-01-09 13:23:00,
2013-01-09 07:33:00,44.0,41.0,30.28,North,-999,-999.0,-999.0,89,-99.99,,,-99.99,,2013-01-09 13:33:00,
2013-01-09 07:43:00,44.0,41.0,30.29,North,-999,-999.0,-999.0,88,-99.99,,,-99.99,,2013-01-09 13:43:00,
2013-01-09 07:52:00,44.0,41.0,30.29,North,-999,-999.0,-999.0,88,-99.99,,,-99.99,,2013-01-09 13:52:00,
2013-01-09 08:00:00,43.0,40.0,30.32,North,-999,-999.0,-999.0,89,-99.99,,,-99.99,,2013-01-09 14:00:00,
2013-01-09 08:03:00,44.0,41.0,30.30,North,-999,-999.0,-999.0,88,-99.99,,,-99.99,,2013-01-09 14:03:00,
2013-01-09 08:12:00,44.0,41.0,30.30,North,-999,-999.0,-999.0,89,-99.99,,,-99.99,,2013-01-09 14:12:00,
2013-01-09 08:22:00,44.0,41.0,30.30,North,-999,-999.0,-999.0,89,-99.99,,,-99.99,,2013-01-09 14:22:00,
2013-01-09 08:33:00,44.0,41.0,30.31,North,-999,-999.0,-999.0,89,-99.99,,,-99.99,,2013-01-09 14:33:00,
2013-01-09 08:43:00,43.0,40.0,30.32,North,-999,-999.0,-999.0,89,-99.99,,,-99.99,,2013-01-09 14:43:00,
2013-01-09 08:53:00,43.0,40.0,30.32,North,-999,-999.0,-999.0,89,-99.99,,,-99.99,,2013-01-09 14:53:00,
2013-01-09 09:12:00,43.0,40.0,30.34,North,-999,-999.0,-999.0,88,-99.99,,,-99.99,,2013-01-09 15:12:00,
2013-01-09 09:23:00,43.0,40.0,30.34,North,-999,-999.0,-999.0,88,-99.99,,,-99.99,,2013-01-09 15:23:00,
2013-01-09 09:33:00,44.0,40.0,30.35,North,-999,-999.0,-999.0,88,-99.99,,,-99.99,,2013-01-09 15:33:00,
2013-01-09 09:42:00,44.0,40.0,30.35,North,-999,-999.0,-999.0,88,-99.99,,,-99.99,,2013-01-09 15:42:00,
2013-01-09 09:53:00,44.0,40.0,30.35,North,-999,-999.0,-999.0,88,-99.99,,,-99.99,,2013-01-09 15:53:00,
2013-01-09 10:00:00,45.0,41.0,30.38,North,-999,-999.0,-999.0,83,-99.99,,,-99.99,,2013-01-09 16:00:00,
2013-01-09 10:03:00,44.0,41.0,30.36,North,-999,-999.0,-999.0,88,-99.99,,,-99.99,,2013-01-09 16:03:00,
2013-01-09 10:12:00,45.0,41.0,30.37,North,-999,-999.0,-999.0,86,-99.99,,,-99.99,,2013-01-09 16:12:00,
2013-01-09 10:23:00,45.0,41.0,30.37,North,-999,-999.0,-999.0,86,-99.99,,,-99.99,,2013-01-09 16:23:00,
2013-01-09 10:33:00,45.0,41.0,30.37,North,-999,-999.0,-999.0,84,-99.99,,,-99.99,,2013-01-09 16:33:00,
2013-01-09 10:43:00,45.0,41.0,30.38,North,-999,-999.0,-999.0,83,-99.99,,,-99.99,,2013-01-09 16:43:00,
2013-01-09 10:52:00,45.0,41.0,30.38,North,-999,-999.0,-999.0,83,-99.99,,,-99.99,,2013-01-09 16:52:00,
2013-01-09 11:00:00,49.0,41.0,30.35,North,-999,-999.0,-999.0,74,-99.99,,,-99.99,,2013-01-09 17:00:00,
2013-01-09 11:12:00,47.0,41.0,30.37,North,-999,-999.0,-999.0,81,-99.99,,,-99.99,,2013-01-09 17:12:00,
2013-01-09 11:23:00,47.0,41.0,30.37,North,-999,-999.0,-999.0,81,-99.99,,,-99.99,,2013-01-09 17:23:00,
2013-01-09 11:33:00,48.0,42.0,30.35,North,-999,-999.0,-999.0,80,-99.99,,,-99.99,,2013-01-09 17:33:00,
2013-01-09 11:43:00,49.0,41.0,30.35,North,-999,-999.0,-999.0,74,-99.99,,,-99.99,,2013-01-09 17:43:00,
2013-01-09 11:53:00,49.0,41.0,30.35,North,-999,-999.0,-999.0,74,-99.99,,,-99.99,,2013-01-09 17:53:00,
2013-01-09 12:12:00,52.0,41.0,30.36,North,-999,-999.0,-999.0,67,-99.99,,,-99.99,,2013-01-09 18:12:00,
2013-01-09 12:24:00,52.0,41.0,30.36,North,-999,-999.0,-999.0,67,-99.99,,,-99.99,,2013-01-09 18:24:00,
2013-01-09 12:30:00,54.0,39.0,30.34,North,-999,-999.0,-999.0,57,-99.99,,,-99.99,,2013-01-09 18:30:00,
2013-01-09 12:33:00,54.0,41.0,30.36,North,-999,-999.0,-999.0,63,-99.99,,,-99.99,,2013-01-09 18:33:00,
2013-01-09 12:43:00,55.0,39.0,30.35,North,-999,-999.0,-999.0,56,-99.99,,,-99.99,,2013-01-09 18:43:00,
2013-01-09 12:53:00,55.0,39.0,30.35,North,-999,-999.0,-999.0,56,-99.99,,,-99.99,,2013-01-09 18:53:00,
2013-01-09 13:03:00,54.0,37.0,30.34,North,-999,-999.0,-999.0,53,-99.99,,,-99.99,,2013-01-09 19:03:00,
2013-01-09 13:13:00,54.0,39.0,30.34,North,-999,-999.0,-999.0,57,-99.99,,,-99.99,,2013-01-09 19:13:00,
2013-01-09 13:22:00,54.0,39.0,30.34,North,-999,-999.0,-999.0,57,-99.99,,,-99.99,,2013-01-09 19:22:00,
2013-01-09 14:03:00,55.0,38.0,30.33,North,-999,-999.0,-999.0,52,-99.99,,,-99.99,,2013-01-09 20:03:00,
2013-01-09 14:12:00,55.0,38.0,30.33,North,-999,-999.0,-999.0,52,-99.99,,,-99.99,,2013-01-09 20:12:00,
2013-01-09 14:23:00,55.0,38.0,30.33,North,-999,-999.0,-999.0,52,-99.99,,,-99.99,,2013-01-09 20:23:00,
2013-01-09 14:33:00,56.0,37.0,30.33,North,-999,-999.0,-999.0,50,-99.99,,,-99.99,,2013-01-09 20:33:00,
2013-01-09 14:43:00,55.0,37.0,30.33,North,-999,-999.0,-999.0,49,-99.99,,,-99.99,,2013-01-09 20:43:00,
2013-01-09 14:52:00,55.0,37.0,30.33,North,-999,-999.0,-999.0,49,-99.99,,,-99.99,,2013-01-09 20:52:00,
2013-01-09 15:00:00,55.0,38.0,30.33,North,-999,-999.0,-999.0,52,-99.99,,,-99.99,,2013-01-09 21:00:00,
2013-01-09 15:03:00,55.0,36.0,30.33,North,-999,-999.0,-999.0,49,-99.99,,,-99.99,,2013-01-09 21:03:00,
2013-01-09 15:13:00,55.0,37.0,30.32,North,-999,-999.0,-999.0,51,-99.99,,,-99.99,,2013-01-09 21:13:00,
2013-01-09 15:23:00,55.0,37.0,30.32,North,-999,-999.0,-999.0,51,-99.99,,,-99.99,,2013-01-09 21:23:00,
2013-01-09 15:33:00,55.0,38.0,30.33,North,-999,-999.0,-999.0,52,-99.99,,,-99.99,,2013-01-09 21:33:00,
2013-01-09 15:43:00,55.0,38.0,30.33,North,-999,-999.0,-999.0,52,-99.99,,,-99.99,,2013-01-09 21:43:00,
2013-01-09 15:52:00,55.0,38.0,30.33,North,-999,-999.0,-999.0,52,-99.99,,,-99.99,,2013-01-09 21:52:00,
2013-01-09 16:12:00,55.0,37.0,30.34,North,-999,-999.0,-999.0,50,-99.99,,,-99.99,,2013-01-09 22:12:00,
2013-01-09 16:23:00,55.0,37.0,30.34,North,-999,-999.0,-999.0,50,-99.99,,,-99.99,,2013-01-09 22:23:00,
2013-01-09 16:33:00,55.0,37.0,30.34,North,-999,-999.0,-999.0,50,-99.99,,,-99.99,,2013-01-09 22:33:00,
2013-01-09 16:43:00,55.0,36.0,30.34,North,-999,-999.0,-999.0,50,-99.99,,,-99.99,,2013-01-09 22:43:00,
2013-01-09 16:52:00,55.0,36.0,30.34,North,-999,-999.0,-999.0,50,-99.99,,,-99.99,,2013-01-09 22:52:00,
2013-01-09 17:02:00,54.0,37.0,30.34,North,-999,-999.0,-999.0,52,-99.99,,,-99.99,,2013-01-09 23:02:00,
2013-01-09 17:13:00,54.0,35.0,30.34,North,-999,-999.0,-999.0,49,-99.99,,,-99.99,,2013-01-09 23:13:00,
2013-01-09 17:22:00,54.0,35.0,30.34,North,-999,-999.0,-999.0,49,-99.99,,,-99.99,,2013-01-09 23:22:00,
2013-01-09 17:33:00,53.0,36.0,30.34,North,-999,-999.0,-999.0,53,-99.99,,,-99.99,,2013-01-09 23:33:00,
2013-01-09 17:43:00,52.0,36.0,30.34,North,-999,-999.0,-999.0,55,-99.99,,,-99.99,,2013-01-09 23:43:00,
2013-01-09 17:52:00,52.0,36.0,30.34,North,-999,-999.0,-999.0,55,-99.99,,,-99.99,,2013-01-09 23:52:00,
2013-01-09 18:03:00,51.0,36.0,30.34,North,-999,-999.0,-999.0,57,-99.99,,,-99.99,,2013-01-10 00:03:00,
2013-01-09 18:12:00,51.0,35.0,30.34,North,-999,-999.0,-999.0,56,-99.99,,,-99.99,,2013-01-10 00:12:00,
2013-01-09 18:22:00,51.0,35.0,30.34,North,-999,-999.0,-999.0,56,-99.99,,,-99.99,,2013-01-10 00:22:00,
2013-01-09 18:32:00,50.0,35.0,30.34,North,-999,-999.0,-999.0,56,-99.99,,,-99.99,,2013-01-10 00:32:00,
2013-01-09 18:42:00,50.0,35.0,30.34,North,-999,-999.0,-999.0,56,-99.99,,,-99.99,,2013-01-10 00:42:00,
2013-01-09 18:52:00,50.0,35.0,30.34,North,-999,-999.0,-999.0,56,-99.99,,,-99.99,,2013-01-10 00:52:00,
2013-01-09 19:02:00,49.0,35.0,30.33,North,-999,-999.0,-999.0,58,-99.99,,,-99.99,,2013-01-10 01:02:00,
2013-01-09 19:12:00,49.0,35.0,30.33,North,-999,-999.0,-999.0,58,-99.99,,,-99.99,,2013-01-10 01:12:00,
2013-01-09 19:22:00,49.0,35.0,30.33,North,-999,-999.0,-999.0,58,-99.99,,,-99.99,,2013-01-10 01:22:00,
2013-01-09 19:33:00,49.0,35.0,30.33,North,-999,-999.0,-999.0,58,-99.99,,,-99.99,,2013-01-10 01:33:00,
2013-01-09 19:43:00,49.0,35.0,30.33,North,-999,-999.0,-999.0,58,-99.99,,,-99.99,,2013-01-10 01:43:00,
2013-01-09 19:50:00,49.0,33.0,30.35,North,-999,-999.0,-999.0,55,-99.99,,,-99.99,,2013-01-10 01:50:00,
2013-01-09 19:52:00,49.0,35.0,30.33,North,-999,-999.0,-999.0,58,-99.99,,,-99.99,,2013-01-10 01:52:00,
2013-01-09 20:03:00,49.0,34.0,30.33,North,-999,-999.0,-999.0,57,-99.99,,,-99.99,,2013-01-10 02:03:00,
2013-01-09 20:12:00,49.0,34.0,30.34,North,-999,-999.0,-999.0,56,-99.99,,,-99.99,,2013-01-10 02:12:00,
2013-01-09 20:22:00,49.0,34.0,30.34,North,-999,-999.0,-999.0,56,-99.99,,,-99.99,,2013-01-10 02:22:00,
2013-01-09 20:32:00,49.0,33.0,30.35,North,-999,-999.0,-999.0,55,-99.99,,,-99.99,,2013-01-10 02:32:00,
2013-01-09 20:42:00,49.0,33.0,30.35,North,-999,-999.0,-999.0,55,-99.99,,,-99.99,,2013-01-10 02:42:00,
2013-01-09 21:03:00,49.0,33.0,30.36,North,-999,-999.0,-999.0,55,-99.99,,,-99.99,,2013-01-10 03:03:00,
2013-01-09 21:12:00,49.0,33.0,30.35,North,-999,-999.0,-999.0,55,-99.99,,,-99.99,,2013-01-10 03:12:00,
2013-01-09 21:22:00,49.0,33.0,30.35,North,-999,-999.0,-999.0,55,-99.99,,,-99.99,,2013-01-10 03:22:00,
2013-01-09 21:33:00,49.0,33.0,30.35,North,-999,-999.0,-999.0,54,-99.99,,,-99.99,,2013-01-10 03:33:00,
2013-01-09 21:42:00,48.0,33.0,30.35,North,-999,-999.0,-999.0,54,-99.99,,,-99.99,,2013-01-10 03:42:00,
2013-01-09 21:52:00,48.0,33.0,30.35,North,-999,-999.0,-999.0,54,-99.99,,,-99.99,,2013-01-10 03:52:00,
2013-01-09 22:02:00,48.0,33.0,30.34,North,-999,-999.0,-999.0,54,-99.99,,,-99.99,,2013-01-10 04:02:00,
2013-01-09 22:12:00,48.0,32.0,30.34,North,-999,-999.0,-999.0,54,-99.99,,,-99.99,,2013-01-10 04:12:00,
2013-01-09 22:22:00,48.0,32.0,30.34,North,-999,-999.0,-999.0,54,-99.99,,,-99.99,,2013-01-10 04:22:00,
2013-01-09 22:32:00,48.0,33.0,30.32,North,-999,-999.0,-999.0,55,-99.99,,,-99.99,,2013-01-10 04:32:00,
2013-01-09 22:42:00,48.0,33.0,30.32,North,-999,-999.0,-999.0,55,-99.99,,,-99.99,,2013-01-10 04:42:00,
2013-01-09 22:52:00,48.0,33.0,30.32,North,-999,-999.0,-999.0,55,-99.99,,,-99.99,,2013-01-10 04:52:00,
2013-01-09 23:03:00,48.0,32.0,30.32,North,-999,-999.0,-999.0,54,-99.99,,,-99.99,,2013-01-10 05:03:00,
2013-01-09 23:12:00,48.0,32.0,30.32,North,-999,-999.0,-999.0,53,-99.99,,,-99.99,,2013-01-10 05:12:00,
2013-01-09 23:22:00,48.0,32.0,30.32,North,-999,-999.0,-999.0,53,-99.99,,,-99.99,,2013-01-10 05:22:00,
2013-01-09 23:33:00,48.0,31.0,30.31,North,-999,-999.0,-999.0,51,-99.99,,,-99.99,,2013-01-10 05:33:00,
2013-01-09 23:42:00,49.0,31.0,30.31,North,-999,-999.0,-999.0,50,-99.99,,,-99.99,,2013-01-10 05:42:00,
2013-01-09 23:52:00,49.0,31.0,30.31,North,-999,-999.0,-999.0,50,-99.99,,,-99.99,,2013-01-10 05:52:00,